Powrót do katalogu

STARLINK-30155

AktywnyŁącznośćVLEO
NORAD 57475·PAYLOAD·🇺🇸 United States

Wystrzelony Jul 28, 2023 z Cape Canaveral Space Force Station

Loading…

Następne Przeloty (najbliższe 24 godziny)

TLE

ŚwieżeSource: CelesTrak SupGP

Epoka: Sep 15, 2026, 01:54 UTC

1 57475C 23107U   26258.07965278  .00012201  00000+0  44199-3 0  2581
2 57475  43.0013 346.1853 0001637 256.1558 183.3857 15.27566898    13

Śledź STARLINK-30155 w czasie rzeczywistym z AllMySat

Download on the App Store